This demonstration page uses our WeatherBlox Daily Observations layout. Learn more.

Left ArrowRight Arrow

41.86663, -103.66717

Hourly Observations for March 13, 2018

Temp ( °F °C ) Dew Point ( °F °C ) Humidity (%) Winds ( mph kmh ) Pressure ( in mb ) Visibility ( mi km ) Precip ( " mm )
12:53 am 00:53 Clear 25 -3.9 17 -8.3 72 72 E 8 13 30.37 1028 10 16 N/A
1:53 am 01:53 Clear 24 -4.4 17 -8.3 75 75 E 7 11 30.35 1028 10 16 N/A
2:53 am 02:53 Clear 24 -4.4 17 -8.3 75 75 E 8 13 30.35 1028 10 16 N/A
3:53 am 03:53 Clear 23 -5 16 -8.9 74 74 ENE 3 6 30.35 1028 10 16 N/A
4:53 am 04:53 Clear 22 -5.6 15 -9.4 75 75 E 8 13 30.37 1028 10 16 N/A
5:53 am 05:53 Clear 22 -5.6 15 -9.4 75 75 SE 5 7 30.38 1029 10 16 N/A
6:53 am 06:53 Clear 20 -6.7 15 -9.4 81 81 E 5 7 30.41 1030 10 16 N/A
7:53 am 07:53 Sunny 23 -5 17 -8.3 78 78 E 6 9 30.42 1030 10 16 N/A
8:53 am 08:53 Sunny 29 -1.7 19 -7.2 66 66 SE 6 9 30.42 1030 10 16 N/A
9:53 am 09:53 Sunny 37 2.8 20 -6.7 50 50 ESE 7 11 30.39 1029 10 16 N/A
10:53 am 10:53 Sunny 43 6.1 20 -6.7 40 40 SE 6 9 30.36 1028 10 16 N/A
11:53 am 11:53 Sunny 49 9.4 21 -6.1 33 33 SE 9 15 30.32 1027 10 16 N/A
12:53 pm 12:53 Sunny 54 12.2 20 -6.7 26 26 SSE 13 20 30.28 1025 10 16 N/A
1:53 pm 13:53 Sunny 57 13.9 19 -7.2 23 23 SSW 9 15 30.24 1024 10 16 N/A
2:53 pm 14:53 Sunny 57 13.9 19 -7.2 23 23 SSE 10 17 30.21 1023 10 16 N/A
3:53 pm 15:53 Sunny 60 15.6 19 -7.2 20 20 SSE 12 19 30.19 1022 10 16 N/A
4:53 pm 16:53 Sunny 59 15 17 -8.3 19 19 S 9 15 30.17 1022 10 16 N/A
5:53 pm 17:53 Sunny 57 13.9 16 -8.9 20 20 SSE 9 15 30.17 1022 10 16 N/A
6:53 pm 18:53 Sunny 52 11.1 17 -8.3 25 25 SE 8 13 30.19 1022 10 16 N/A
7:53 pm 19:53 Clear 41 5 18 -7.8 39 39 E 6 9 30.22 1023 10 16 N/A
8:53 pm 20:53 Clear 37 2.8 20 -6.7 50 50 E 7 11 30.22 1023 10 16 N/A
9:53 pm 21:53 Clear 33 0.6 19 -7.2 56 56 E 6 9 30.20 1023 10 16 N/A
10:53 pm 22:53 Clear 34 1.1 21 -6.1 59 59 E 8 13 30.18 1022 10 16 N/A
11:53 pm 23:53 Clear 33 0.6 21 -6.1 61 61 E 10 17 30.15 1021 10 16 N/A

Powered by AerisWeather